[[{"header":{"parameterUnit":"m.s-1","parameterCategory":1,"la1":30.2991,"la2":30.254,"lo1":-89.0895,"lo2":-89.0444,"dy":0.0017,"dx":0.0017,"nx":28,"ny":28,"refTime":"2024-07-11T09:00:00:Z","depth":0,"parameterNumber":2,"parameterNumberName":"U-component_of_WINDS"},"data":[0,0,0,0,0,0,0,0,0,0,0,0,0,0,0,0,0,0,0,0,0,0,0,0,0,0,0,0,0,0,0,0,0,0,0,0,0,0,0,0,0,0,0,0,0,0,0,0,0,0,0,0,0,0,0,0,0,0,1.8563,1.8564,0,1.8633,1.8634,1.8635,1.8555,1.8552,1.8549,1.8546,1.8621,1.8626,1.8631,0,0,0,0,0,0,0,0,0,0,0,0,0,1.8362,1.8366,1.8563,1.8564,1.8565,1.8633,1.8634,1.8635,1.8555,1.8552,1.8548,1.8544,1.862,1.8625,1.8631,0,0,0,0,0,0,0,0,0,0,0,0,0,1.8443,1.8368,1.8563,1.8533,1.8531,1.8633,1.8634,1.8635,1.8556,1.8552,1.8547,1.8543,1.8618,1.8625,1.8632,1.8767,0,0,1.8654,1.8657,0,0,0,0,0,0,0,0,1.8438,1.845,1.8537,1.8535,1.8533,1.858,1.8591,1.868,1.8557,1.8547,1.8546,1.8541,1.8612,1.8619,1.8642,1.8771,1.8774,1.8655,1.8659,1.8662,1.8664,0,0,0,0,0,0,0,1.8433,1.8447,1.8591,1.8538,1.8536,1.8517,1.8523,1.8607,1.8604,1.8547,1.8542,1.8551,1.861,1.8635,1.8643,1.8775,1.8654,1.8661,1.8665,1.8668,1.9018,1.9022,0,0,0,0,0,0,1.843,1.8443,1.8589,1.8593,1.8473,1.8524,1.8531,1.857,1.8603,1.8603,1.8555,1.8547,1.8625,1.8635,1.8646,1.8806,1.8662,1.8669,1.8673,1.9013,1.9019,1.9024,0,0,0,0,0,0,1.8426,1.8444,1.8586,1.8516,1.8533,1.8533,1.8576,1.8574,1.8599,1.8608,1.8607,1.8581,1.8622,1.8636,1.8737,1.8808,1.8672,1.8679,1.9007,1.9014,1.9021,1.9128,0,0,0,0,0,0,1.8421,1.8443,1.8494,1.8518,1.8537,1.8676,1.8581,1.8578,1.8612,1.8602,1.8633,1.8634,1.862,1.8727,1.8744,1.8815,1.8684,1.9001,1.901,1.9019,1.9118,1.9138,1.9155,0,0,0,0,0,1.8414,1.8522,1.8497,1.8515,1.86,1.868,1.8691,1.8671,1.8618,1.8669,1.8675,1.8633,1.8797,1.8738,1.8757,1.8831,1.8996,1.9007,1.9018,1.911,1.9134,1.9155,0,0,0,0,0,0,1.8508,1.8525,1.8497,1.8616,1.8647,1.8666,1.8731,1.8698,1.8745,1.8735,1.8709,1.8717,1.8825,1.8838,1.8772,1.8963,1.8888,1.8903,1.8951,1.8974,1.8992,1.8987,1.869,0,0,0,0,0,1.8543,1.8605,1.8616,1.872,1.8737,1.8732,1.8765,1.8747,1.8779,1.8792,1.8805,1.8838,1.8896,1.8936,1.899,1.9119,1.9125,1.918,1.9198,1.9213,1.9227,1.9296,1.932,1.9061,1.906,1.906,0,0,1.8615,1.8632,1.8673,1.874,1.8762,1.8827,1.8743,1.8817,1.8865,1.8803,1.89,1.8911,1.8945,1.9061,1.9113,1.9076,1.93,1.9227,1.9239,1.9245,1.931,1.9335,1.9357,1.9068,1.9067,1.9065,0,0,1.878,1.8799,1.8887,1.8911,1.8944,1.8939,1.8961,1.8985,1.8989,1.9085,1.904,1.9097,1.9199,1.9226,1.9253,1.9427,1.939,1.9445,1.9542,1.961,1.963,1.9648,1.971,1.9733,1.9459,1.9459,1.946,0,1.8866,1.8963,1.8938,1.9014,1.9045,1.899,1.908,1.9104,1.9154,1.9177,1.9134,1.9259,1.9279,1.94,1.9442,1.9466,1.949,1.9442,1.9629,1.9647,1.9663,1.9722,1.9746,1.9466,1.9465,1.9464,1.9464,0,1.9067,1.9134,1.9202,1.925,1.9288,1.9371,1.9359,1.9401,1.9379,1.9379,1.9478,1.9499,1.9557,1.9584,1.9565,1.9703,1.9678,1.9633,1.9556,1.9695,1.975,1.9773,1.9475,1.9473,1.9471,1.9469,0,0,1.9295,1.9327,1.9352,1.9373,1.9405,1.9457,1.9538,1.9593,1.9629,1.9665,1.9732,1.9819,1.9776,1.9807,1.979,1.9849,1.9985,1.9796,1.9796,1.983,2.0138,2.0173,2.0199,1.996,1.9965,1.9968,2.0135,0,1.9461,1.9598,1.9578,1.9711,1.9773,1.9721,1.9791,1.9819,1.9821,1.9874,1.9876,1.9938,1.9877,1.9895,1.9951,1.9957,2.0047,1.9944,2.0023,2.0026,2.0016,2.0228,2.0265,2.0422,2.0157,2.016,2.0163,0,1.9673,1.9715,1.9854,1.9876,1.9901,1.9964,2.0012,2.0064,2.0094,2.0091,2.0125,2.0096,2.0177,2.0098,2.0209,2.014,2.0171,2.0178,2.0184,2.0191,2.0104,2.0241,2.0472,2.0495,2.0197,2.0194,2.0192,0,1.9826,1.9917,2.0012,2.0032,2.0059,2.0105,2.0119,2.0144,2.0178,2.0221,2.0243,2.0294,2.0323,2.0364,2.0351,2.0295,2.0464,2.0385,2.0465,2.0465,2.0504,2.0502,2.0743,2.0523,2.0523,2.0522,2.0522,0,2.0013,2.0101,2.0081,2.014,2.0236,2.0211,2.0307,2.0314,2.0337,2.0397,2.0355,2.0412,2.039,2.0446,2.0436,2.0529,2.0543,2.0543,2.0539,2.0547,2.0547,2.0567,2.0556,2.0528,2.0527,2.0526,2.0525,0,2.0201,2.0191,2.0291,2.0308,2.0314,2.0385,2.04,2.0455,2.0452,2.0528,2.0545,2.0542,2.0605,2.0595,2.0666,2.0659,2.0775,2.0758,2.0765,2.0761,2.0842,2.0834,2.1105,2.1139,2.0897,2.0899,2.0901,0,2.0322,2.0387,2.0411,2.0447,2.0464,2.0523,2.0557,2.0535,2.0572,2.0611,2.0661,2.072,2.0766,2.087,2.0875,2.0928,2.0912,2.1003,2.092,2.0926,2.0914,2.091,2.0917,2.102,2.1023,2.1025,2.1027,0,2.0537,2.0528,2.0579,2.0627,2.0669,2.0706,2.074,2.0772,2.0753,2.0797,2.086,2.0896,2.0967,2.1026,2.1076,2.1091,2.1057,2.1053,2.1074,2.1083,2.1084,2.1085,2.081,2.1047,2.1045,2.1044,2.1043,2.1042,2.0695,2.075,2.0775,2.0833,2.0855,2.0887,2.0939,2.0943,2.0995,2.105,2.1034,2.1106,2.1134,2.1197,2.1217,2.1273,2.124,2.1271,2.1279,2.1287,2.1296,2.1075,2.1282,2.1282,2.1281,2.1281,2.128,0,2.0908,2.0921,2.0974,2.1021,2.1066,2.1028,2.1063,2.1103,2.1167,2.1195,2.124,2.1313,2.137,2.1379,2.1433,2.1476,2.1462,2.1491,2.1488,2.1492,2.1323,2.1299,2.1502,2.1502,2.1502,2.1502,2.1502,2.1502,2.1025,2.1117,2.1111,2.1213,2.1226,2.1295,2.1318,2.1348,2.137,2.1452,2.1499,2.1503,2.1524,2.1579,2.1629,2.163,2.1652,2.1688,2.1684,2.1526,2.1504,2.1483,2.146,2.1693,2.1694,2.1847,2.1849,2.185]},{"header":{"parameterUnit":"m.s-1","parameterCategory":1,"la1":30.2991,"la2":30.254,"lo1":-89.0895,"lo2":-89.0444,"dy":0.0017,"dx":0.0017,"nx":28,"ny":28,"refTime":"2024-07-11T09:00:00:Z","depth":0,"parameterNumber":3,"parameterNumberName":"V-component_of_WINDS"},"data":[0,0,0,0,0,0,0,0,0,0,0,0,0,0,0,0,0,0,0,0,0,0,0,0,0,0,0,0,0,0,0,0,0,0,0,0,0,0,0,0,0,0,0,0,0,0,0,0,0,0,0,0,0,0,0,0,0,0,-0.6473,-0.6473,0,-0.6478,-0.6478,-0.6478,-0.6493,-0.6494,-0.6494,-0.6494,-0.6499,-0.6499,-0.6499,0,0,0,0,0,0,0,0,0,0,0,0,0,-0.6477,-0.6477,-0.6473,-0.6473,-0.6473,-0.6478,-0.6478,-0.6478,-0.6493,-0.6494,-0.6494,-0.6495,-0.6499,-0.6499,-0.6499,0,0,0,0,0,0,0,0,0,0,0,0,0,-0.6478,-0.6477,-0.6473,-0.6482,-0.6482,-0.6478,-0.6478,-0.6478,-0.6493,-0.6494,-0.6494,-0.6495,-0.6499,-0.6499,-0.6499,-0.6487,0,0,-0.6498,-0.6498,0,0,0,0,0,0,0,0,-0.6478,-0.6478,-0.648,-0.6481,-0.6482,-0.6486,-0.6481,-0.6481,-0.6493,-0.6489,-0.6494,-0.6495,-0.6494,-0.6494,-0.6494,-0.6487,-0.6487,-0.6498,-0.6498,-0.6497,-0.6497,0,0,0,0,0,0,0,-0.6478,-0.6478,-0.6475,-0.648,-0.6481,-0.6485,-0.6486,-0.6481,-0.6489,-0.649,-0.6491,-0.6491,-0.6495,-0.6494,-0.6494,-0.6487,-0.6498,-0.6498,-0.6497,-0.6497,-0.6471,-0.6471,0,0,0,0,0,0,-0.6477,-0.6478,-0.6475,-0.6475,-0.6481,-0.6485,-0.6485,-0.6484,-0.6489,-0.649,-0.6491,-0.6492,-0.6495,-0.6495,-0.6495,-0.6481,-0.6497,-0.6497,-0.6497,-0.6472,-0.6471,-0.6471,0,0,0,0,0,0,-0.6477,-0.6476,-0.6475,-0.6477,-0.6477,-0.6484,-0.6482,-0.6484,-0.6483,-0.649,-0.6491,-0.6489,-0.6495,-0.6495,-0.6489,-0.6481,-0.6497,-0.6497,-0.6472,-0.6472,-0.6471,-0.6454,0,0,0,0,0,0,-0.6477,-0.6476,-0.6472,-0.6477,-0.6477,-0.6469,-0.6482,-0.6484,-0.6483,-0.6485,-0.6488,-0.649,-0.6495,-0.6489,-0.6488,-0.6481,-0.6497,-0.6473,-0.6472,-0.6471,-0.6455,-0.6453,-0.6451,0,0,0,0,0,-0.6477,-0.6467,-0.6471,-0.6471,-0.6471,-0.6468,-0.6468,-0.6475,-0.6482,-0.6478,-0.6482,-0.6489,-0.6483,-0.6488,-0.6488,-0.648,-0.6474,-0.6472,-0.6471,-0.6456,-0.6453,-0.6451,0,0,0,0,0,0,-0.646,-0.6467,-0.6473,-0.6464,-0.6465,-0.6471,-0.6465,-0.6472,-0.6472,-0.6473,-0.6482,-0.6483,-0.6475,-0.6477,-0.6484,-0.647,-0.6479,-0.6478,-0.6468,-0.6465,-0.6463,-0.6462,-0.6496,0,0,0,0,0,-0.6456,-0.6453,-0.6459,-0.6451,-0.6451,-0.6458,-0.6457,-0.6463,-0.6465,-0.6465,-0.6469,-0.647,-0.6469,-0.6467,-0.6466,-0.6456,-0.6457,-0.6451,-0.6448,-0.6446,-0.6445,-0.644,-0.6437,-0.6467,-0.6467,-0.6467,0,0,-0.6446,-0.6449,-0.6447,-0.6447,-0.6449,-0.6446,-0.6459,-0.6455,-0.6452,-0.6465,-0.6459,-0.6462,-0.6464,-0.6456,-0.6452,-0.6458,-0.6437,-0.6445,-0.6443,-0.6443,-0.6438,-0.6436,-0.6433,-0.6466,-0.6466,-0.6466,0,0,-0.6426,-0.6429,-0.6422,-0.6424,-0.6427,-0.6431,-0.643,-0.6435,-0.6437,-0.6432,-0.6441,-0.6438,-0.6435,-0.6437,-0.6437,-0.6419,-0.6426,-0.6418,-0.6406,-0.6401,-0.6398,-0.6396,-0.639,-0.6387,-0.6417,-0.6417,-0.6417,0,-0.6413,-0.6409,-0.6417,-0.6413,-0.6413,-0.6425,-0.6418,-0.6419,-0.6421,-0.6421,-0.6427,-0.6423,-0.6426,-0.6418,-0.6414,-0.6414,-0.6412,-0.6417,-0.6398,-0.6396,-0.6394,-0.6388,-0.6386,-0.6416,-0.6416,-0.6416,-0.6416,0,-0.6393,-0.639,-0.6384,-0.6386,-0.6386,-0.638,-0.6388,-0.6386,-0.6392,-0.6396,-0.6391,-0.6395,-0.6394,-0.6393,-0.6399,-0.6386,-0.6389,-0.6397,-0.6406,-0.639,-0.6385,-0.6382,-0.6415,-0.6415,-0.6415,-0.6415,0,0,-0.6362,-0.637,-0.6367,-0.6368,-0.6373,-0.6371,-0.6366,-0.6366,-0.6364,-0.6366,-0.6362,-0.6359,-0.6366,-0.6367,-0.6373,-0.6368,-0.6354,-0.6376,-0.6376,-0.6371,-0.634,-0.6334,-0.6331,-0.6359,-0.6358,-0.6358,-0.634,0,-0.6343,-0.6335,-0.6343,-0.6333,-0.633,-0.6342,-0.6338,-0.634,-0.6344,-0.6343,-0.6348,-0.6345,-0.6355,-0.6355,-0.6352,-0.6356,-0.6347,-0.6358,-0.6355,-0.6355,-0.6353,-0.6328,-0.6322,-0.6305,-0.6338,-0.6337,-0.6337,0,-0.6319,-0.632,-0.631,-0.6316,-0.6315,-0.6311,-0.6312,-0.631,-0.6313,-0.6317,-0.6318,-0.6325,-0.6321,-0.6331,-0.6326,-0.6333,-0.6332,-0.6334,-0.6334,-0.6333,-0.6344,-0.6327,-0.63,-0.6297,-0.6334,-0.6334,-0.6334,0,-0.6297,-0.6296,-0.629,-0.629,-0.6297,-0.6294,-0.6296,-0.63,-0.63,-0.6301,-0.6301,-0.6301,-0.6301,-0.6301,-0.6309,-0.6316,-0.6302,-0.6313,-0.6305,-0.6305,-0.6301,-0.6301,-0.6273,-0.6302,-0.6302,-0.6302,-0.6302,0,-0.6274,-0.6268,-0.628,-0.6276,-0.6269,-0.6279,-0.6271,-0.6275,-0.6279,-0.6276,-0.6286,-0.6283,-0.6294,-0.6292,-0.6298,-0.6293,-0.6293,-0.6295,-0.6297,-0.6294,-0.6293,-0.6293,-0.6294,-0.6301,-0.6301,-0.6301,-0.6301,0,-0.6248,-0.6256,-0.625,-0.6257,-0.6258,-0.6253,-0.6259,-0.6256,-0.6261,-0.6257,-0.6257,-0.6266,-0.6264,-0.6272,-0.6272,-0.6276,-0.6268,-0.6271,-0.6266,-0.6267,-0.6258,-0.6259,-0.6228,-0.6225,-0.6256,-0.6256,-0.6256,0,-0.6232,-0.6228,-0.6234,-0.6233,-0.6235,-0.6234,-0.6234,-0.6243,-0.6243,-0.6247,-0.6243,-0.6243,-0.6243,-0.624,-0.6246,-0.6247,-0.625,-0.624,-0.625,-0.6248,-0.6249,-0.6249,-0.6249,-0.6237,-0.6237,-0.6236,-0.6236,0,-0.6204,-0.6209,-0.6208,-0.6209,-0.6209,-0.621,-0.6212,-0.621,-0.6221,-0.622,-0.6219,-0.6219,-0.6219,-0.6219,-0.6221,-0.6223,-0.6231,-0.6233,-0.6231,-0.6227,-0.6224,-0.6225,-0.626,-0.6233,-0.6233,-0.6234,-0.6234,-0.6234,-0.6182,-0.6179,-0.6183,-0.6182,-0.6185,-0.6187,-0.6184,-0.619,-0.6189,-0.619,-0.6196,-0.6194,-0.6198,-0.6201,-0.6203,-0.6202,-0.6207,-0.6204,-0.6203,-0.6202,-0.62,-0.6225,-0.6202,-0.6202,-0.6202,-0.6202,-0.6203,0,-0.6154,-0.6158,-0.6157,-0.616,-0.6159,-0.6168,-0.617,-0.6169,-0.6167,-0.617,-0.6171,-0.617,-0.617,-0.6176,-0.6177,-0.6174,-0.6178,-0.6174,-0.6174,-0.6175,-0.6196,-0.6197,-0.6171,-0.6171,-0.6171,-0.6171,-0.6171,-0.6171,-0.614,-0.6134,-0.6139,-0.6135,-0.6139,-0.6137,-0.6138,-0.6139,-0.6142,-0.614,-0.614,-0.6145,-0.6149,-0.6151,-0.6151,-0.6153,-0.6153,-0.6147,-0.615,-0.617,-0.6173,-0.6176,-0.6177,-0.6147,-0.6147,-0.6129,-0.6129,-0.6129]}]]